Regional Weather Roundup
Issued by NWS

Home | Current Version | Previous Version | Graphics & Text | Print | Product List | Glossary On
Versions: 1 2 3 4 5 6 7 8 9 10 11 12 13 14 15 16 17 18 19 20 21 22 23 24 25 26 27 28 29 30 31 32 33 34 35 36 37 38 39 40 41 42 43 44 45 46 47 48 49 50
000
ASUS43 KLSX 060710
RWRMO

WEATHER SUMMARY FOR MISSOURI
NATIONAL WEATHER SERVICE SPRINGFIELD MO
100 AM CST TUE DEC 06 2016

NOTE: "FAIR" INDICATES FEW OR NO CLOUDS BELOW 12,000 FEET WITH NO
       SIGNIFICANT WEATHER AND/OR OBSTRUCTIONS TO VISIBILITY.
       CURRENT SKY AND/OR WEATHER CONDITIONS ARE NOT AVAILABLE FOR
       CHILLICOTHE AND FARMINGTON.

MOZ001>031-035>038-043-044-053-054-060800-
...NORTHERN AND WESTERN MISSOURI...

CITY           SKY/WX    TMP DP  RH WIND       PRES   REMARKS
KANSAS CTY INT CLOUDY    37  31  78 SW5       29.78R
KANSAS C DTWN  PTCLDY    34  32  92 CALM      29.78S
LEE`S SUMMIT   CLEAR     32  30  92 CALM      29.77F
ST JOSEPH      CLOUDY    36  34  92 N5        29.80R
CHILLICOTHE      N/A     29  28  96 CALM      29.80F
KIRKSVILLE     CLOUDY    36  35  96 S6        29.80S FOG

$$
MOZ066>068-077>081-088>096-101>105-060800-
...SOUTHWEST MISSOURI...

CITY           SKY/WX    TMP DP  RH WIND       PRES   REMARKS
SPRINGFIELD    CLOUDY    41  38  89 S5        29.73R
JOPLIN         MOCLDY    35  34  96 CALM      29.76S
BRANSON        LGT RAIN  39  39 100 CALM      29.74S

$$
MOZ032>034-039>042-045>050-055>058-069>072-060800-
...CENTRAL MISSOURI...

CITY           SKY/WX    TMP DP  RH WIND       PRES   REMARKS
COLUMBIA       CLOUDY    34  34 100 CALM      29.77R
JEFFERSON CITY PTCLDY    35  33  92 CALM      29.78S
ROLLA          CLOUDY    37  35  92 CALM      29.73F
SEDALIA        FOG       31  29  92 CALM      29.78S VSB 1/2
WHITEMAN AFB   PTCLDY    28  28 100 NE3       29.76S
WARRENSBURG    CLEAR     30  30 100 NW3       29.77S
OSAGE BEACH    CLOUDY    37  35  92 E3        29.76F

$$
MOZ051-052-059>065-060800-
...EAST CENTRAL MISSOURI...

CITY           SKY/WX    TMP DP  RH WIND       PRES   REMARKS
ST LOUIS INTL  CLOUDY    39  33  79 SE7       29.79S
SPIRIT OF STL  MOCLDY    36  36 100 SE6       29.78F
ST CHARLES     PTCLDY    38  36  92 E3        29.78F

$$
MOZ072>076-082>087-097>100-106>115-060800-
...SOUTH CENTRAL AND SOUTHEAST MISSOURI...

CITY           SKY/WX    TMP DP  RH WIND       PRES   REMARKS
CAPE GIRARDEAU LGT RAIN  40  38  93 N6        29.74F FOG
FARMINGTON     LGT RAIN  38  36  92 N3        29.76F
POPLAR BLUFF   LGT RAIN  40  40 100 N9        29.71F FOG
WEST PLAINS    LGT RAIN  39  38  96 NE3       29.74F FOG

$$



USA.gov is the U.S. government's official web portal to all federal, state and local government web resources and services.